time_stamp(utc),avg(mph),gust(mph),direction(deg),12m_air_temp(f),sonic_u(cm/s),sonic_v(cm/s),sonic_w(cm/s),pressure,2m_air_temp(f),pyranometer(W/m^2)
"2018-06-17 00:02:07+00",10.6,12.6,,70.9,15,-449,-16,1015.78,70.7,0
"2018-06-17 00:07:07+00",7.2,9.2,,71,-95,-286,7,1015.82,70.6,0
"2018-06-17 00:12:07+00",11.7,16.7,,71.8,-224,-459,-7,1015.82,70.8,0
"2018-06-17 00:17:07+00",8.6,12.6,,72.3,-67,-358,-16,1015.74,71.5,0
"2018-06-17 00:22:07+00",12.9,14.9,,72.3,-235,-517,-7,1015.82,71.6,0
"2018-06-17 00:27:07+00",16.1,18.1,,73,-498,-550,12,1015.76,71.8,0
"2018-06-17 00:32:07+00",16.5,19.5,,73.2,-520,-512,2,1015.82,72.2,0
"2018-06-17 00:37:07+00",15.8,18.8,,73.3,-508,-462,16,1015.9,72.3,0
"2018-06-17 00:42:07+00",16.3,21.3,,73.3,-552,-444,36,1016.02,72.4,0
"2018-06-17 00:47:07+00",18.3,21.3,,73.3,-630,-466,9,1016.02,72.4,0
"2018-06-17 00:52:07+00",16.5,19.5,,73.3,-560,-447,21,1016.04,72.5,0
"2018-06-17 00:57:07+00",15.3,17.3,,73,-526,-405,11,1016.15,72.4,0
"2018-06-17 01:02:07+00",16.4,19.4,,73.2,-595,-409,14,1016.16,72.4,0
"2018-06-17 01:07:07+00",15.6,18.6,,73.2,-555,-390,16,1016.27,72.4,0
"2018-06-17 01:12:07+00",14.0,16.0,,73.2,-515,-344,32,1016.38,72.4,0
"2018-06-17 01:17:07+00",13.4,15.4,,73.2,-535,-299,11,1016.35,72.4,0
"2018-06-17 01:22:07+00",15.6,18.6,,73.3,-599,-368,13,1016.41,72.4,0
"2018-06-17 01:27:07+00",14.5,16.5,,73.1,-527,-365,16,1016.43,72.4,0
"2018-06-17 01:32:07+00",14.8,16.8,,72.9,-527,-372,14,1016.49,72.3,0
"2018-06-17 01:37:07+00",13.3,16.3,,72.8,-500,-328,19,1016.56,72.2,0
"2018-06-17 01:42:07+00",14.0,16.0,,72.7,-499,-353,22,1016.71,72,0
"2018-06-17 01:47:07+00",15.0,18.0,,72.6,-530,-382,15,1016.77,72,0
"2018-06-17 01:52:07+00",15.2,17.2,,72.5,-513,-411,7,1016.79,71.9,0
"2018-06-17 01:57:07+00",13.6,15.6,,72.4,-473,-364,17,1016.89,71.8,0
"2018-06-17 02:02:07+00",12.7,15.7,,72.4,-415,-378,22,1016.9,71.7,0
"2018-06-17 02:07:07+00",13.7,16.7,,72.4,-430,-438,-1,1016.8,71.7,0
"2018-06-17 02:12:07+00",14.4,16.4,,72.1,-454,-455,-3,1016.84,71.5,0
"2018-06-17 02:17:07+00",14.0,16.0,,71.9,-457,-398,9,1016.87,71.4,0
"2018-06-17 02:22:07+00",14.6,16.6,,71.8,-505,-394,23,1016.82,71.2,0
"2018-06-17 02:27:07+00",14.9,15.9,,71.6,-514,-390,17,1016.93,71.1,0
"2018-06-17 02:32:07+00",13.3,16.3,,71.5,-443,-379,13,1016.9,71,0
"2018-06-17 02:37:07+00",12.7,15.7,,71.5,-415,-375,10,1016.84,70.9,0
"2018-06-17 02:42:07+00",12.4,14.4,,71.6,-393,-395,8,1016.85,70.9,0
"2018-06-17 02:47:07+00",12.4,14.4,,71.6,-383,-406,6,1016.75,70.9,0
"2018-06-17 02:52:07+00",12.6,15.6,,71.6,-408,-371,15,1016.79,70.9,0
"2018-06-17 02:57:07+00",12.3,14.3,,71.6,-400,-366,20,1016.81,70.9,0
"2018-06-17 03:02:07+00",13.1,15.1,,71.5,-436,-373,22,1016.87,70.9,0
"2018-06-17 03:07:07+00",14.6,16.6,,71.4,-480,-407,-7,1016.82,70.9,0
"2018-06-17 03:12:07+00",12.5,14.5,,71.3,-425,-346,25,1016.79,70.8,0
"2018-06-17 03:17:07+00",14.1,16.1,,71.3,-462,-397,15,1016.81,70.8,0
"2018-06-17 03:22:07+00",13.5,14.5,,71.2,-432,-406,6,1016.85,70.7,0
"2018-06-17 03:27:07+00",14.6,17.6,,71.1,-473,-433,9,1016.7,70.6,0
"2018-06-17 03:32:07+00",15.1,17.1,,71.1,-505,-419,2,1016.86,70.6,0
"2018-06-17 03:37:07+00",13.2,15.2,,71,-428,-410,0,1016.78,70.5,0
"2018-06-17 03:42:07+00",12.9,13.9,,70.8,-411,-407,3,1016.8,70.4,0
"2018-06-17 03:47:07+00",11.3,13.3,,70.7,-353,-369,5,1016.75,70.3,0
"2018-06-17 03:52:07+00",11.2,13.2,,70.7,-354,-359,6,1016.84,70.1,0
"2018-06-17 03:57:07+00",11.0,12.0,,70.5,-325,-381,16,1016.83,70,0
"2018-06-17 04:02:07+00",11.1,12.1,,70.4,-331,-379,6,1016.9,69.9,0
"2018-06-17 04:07:07+00",10.9,11.9,,70.4,-320,-381,9,1017.06,69.8,0
"2018-06-17 04:12:07+00",11.5,12.5,,70.4,-354,-396,6,1017.02,69.7,0
"2018-06-17 04:17:07+00",10.4,11.4,,70.3,-314,-355,11,1017.07,69.7,0
"2018-06-17 04:22:07+00",10.1,11.1,,70.2,-296,-353,2,1017.05,69.6,0
"2018-06-17 04:27:07+00",10.1,11.1,,70.1,-299,-352,10,1017.09,69.5,0
"2018-06-17 04:32:07+00",9.9,10.9,,70.1,-307,-332,7,1017.08,69.5,0
"2018-06-17 04:37:07+00",9.7,10.7,,70,-304,-317,7,1017.11,69.4,0
"2018-06-17 04:42:07+00",10.6,12.6,,70,-340,-329,4,1017.12,69.4,0
"2018-06-17 04:47:07+00",11.9,13.9,,70,-381,-380,-2,1017.17,69.4,0
"2018-06-17 04:52:07+00",11.1,12.1,,69.9,-358,-337,-3,1017.26,69.3,0
"2018-06-17 04:57:07+00",10.5,11.5,,69.8,-342,-309,1,1017.27,69.3,0
"2018-06-17 05:02:07+00",9.8,10.8,,69.7,-329,-267,11,1017.44,69.2,0
"2018-06-17 05:07:07+00",9.9,10.9,,69.7,-334,-266,14,1017.31,69.1,0
"2018-06-17 05:12:07+00",10.2,11.2,,69.6,-339,-282,11,1017.26,69,0
"2018-06-17 05:17:07+00",9.6,11.6,,69.4,-306,-282,3,1017.23,68.9,0
"2018-06-17 05:22:07+00",9.4,10.4,,69.3,-313,-259,9,1017.27,68.7,0
"2018-06-17 05:27:07+00",10.0,11.0,,69.2,-335,-269,9,1017.33,68.6,0
"2018-06-17 05:32:07+00",9.9,10.9,,69.1,-335,-259,9,1017.26,68.4,0
"2018-06-17 05:37:07+00",8.9,9.9,,69.1,-315,-222,15,1017.31,68.3,0
"2018-06-17 05:42:07+00",9.4,10.4,,69,-324,-243,10,1017.24,68.2,0
"2018-06-17 05:47:07+00",8.9,9.9,,69,-329,-212,11,1017.17,68.1,0
"2018-06-17 05:52:07+00",8.3,9.3,,68.9,-302,-199,12,1017.14,68,0
"2018-06-17 05:57:07+00",7.3,8.3,,68.8,-293,-158,4,1017.27,68,0
"2018-06-17 06:02:07+00",7.8,8.8,,68.7,-337,-164,9,1017.24,67.9,0
"2018-06-17 06:07:07+00",7.4,8.4,,68.9,-307,-156,12,1017.17,67.8,0
"2018-06-17 06:12:07+00",6.5,7.5,,68.9,-294,-129,10,1017.23,67.7,0
"2018-06-17 06:17:07+00",6.5,7.5,,68.9,-279,-129,10,1017.16,67.6,0
"2018-06-17 06:22:07+00",8.8,9.8,,69.1,-366,-113,8,1017.13,67.4,0
"2018-06-17 06:27:07+00",8.5,9.5,,69.2,-349,-101,7,1017.12,67.4,0
"2018-06-17 06:32:07+00",7.9,8.9,,69.2,-324,-102,13,1017.1,67.4,0
"2018-06-17 06:37:07+00",8.5,9.5,,69.1,-346,-109,13,1016.92,67.3,0
"2018-06-17 06:42:07+00",7.6,8.6,,69,-323,-48,13,1016.94,67.1,0
"2018-06-17 06:47:07+00",6.1,7.1,,68.7,-251,-57,6,1016.99,67.1,0
"2018-06-17 06:52:07+00",6.8,7.8,,68.5,-276,-71,6,1016.96,67,0
"2018-06-17 06:57:07+00",7.9,8.9,,68.4,-321,-91,6,1016.91,66.7,0
"2018-06-17 07:02:07+00",7.6,8.6,,68.4,-315,-105,14,1016.88,66.6,0
"2018-06-17 07:07:07+00",8.0,9.0,,68.6,-344,-128,11,1016.8,66.4,0
"2018-06-17 07:12:07+00",7.7,8.7,,68.7,-326,-156,6,1016.71,66.4,0
"2018-06-17 07:17:07+00",7.6,8.6,,68.7,-333,-145,8,1016.6,66.5,0
"2018-06-17 07:22:07+00",7.4,8.4,,68.5,-304,-100,11,1016.75,66.5,0
"2018-06-17 07:27:07+00",7.2,9.2,,68.6,-303,-89,9,1016.69,66.5,0
"2018-06-17 07:32:07+00",7.3,8.3,,68.6,-305,-107,11,1016.63,66.5,0
"2018-06-17 07:37:07+00",7.0,8.0,,68.5,-299,-119,6,1016.67,66.5,0
"2018-06-17 07:42:07+00",6.7,7.7,,68.7,-280,-136,4,1016.52,66.5,0
"2018-06-17 07:47:07+00",6.6,6.6,,68.7,-259,-142,7,1016.59,66.4,0
"2018-06-17 07:52:07+00",7.1,8.1,,69,-265,-164,15,1016.67,66.3,0
"2018-06-17 07:57:07+00",7.4,8.4,,69.1,-316,-151,5,1016.66,66.2,0
"2018-06-17 08:02:07+00",7.6,8.6,,69.2,-334,-141,11,1016.66,66.2,0
"2018-06-17 08:07:07+00",9.2,11.2,,69.2,-391,-132,15,1016.64,66.2,0
"2018-06-17 08:12:07+00",9.1,10.1,,69.2,-379,-128,12,1016.63,66.4,0
"2018-06-17 08:17:07+00",8.0,9.0,,69.3,-353,-139,16,1016.65,66.4,0
"2018-06-17 08:22:07+00",8.2,10.2,,69.1,-360,-138,10,1016.71,66.4,0
"2018-06-17 08:27:07+00",8.7,9.7,,69.1,-356,-87,7,1016.83,66.4,0
"2018-06-17 08:32:07+00",8.2,9.2,,69.1,-338,-62,10,1016.87,66.5,0
"2018-06-17 08:37:07+00",7.4,8.4,,68.9,-311,-57,10,1016.94,66.5,0
"2018-06-17 08:42:07+00",6.7,7.7,,68.8,-281,-47,6,1016.93,66.4,0
"2018-06-17 08:47:07+00",6.6,6.6,,68.6,-287,-19,10,1016.93,66.3,0
"2018-06-17 08:52:07+00",7.6,7.6,,68.7,-324,-45,11,1016.93,66.3,0
"2018-06-17 08:57:07+00",7.6,8.6,,68.8,-326,-45,-11,1017,66.2,0
"2018-06-17 09:02:07+00",8.5,9.5,,68.8,-353,-48,-23,1016.89,66.2,0
"2018-06-17 09:07:07+00",8.1,9.1,,68.8,-323,-81,8,1016.87,66.1,0
"2018-06-17 09:12:07+00",7.2,7.2,,68.6,-291,-69,5,1016.88,66,0
"2018-06-17 09:17:07+00",8.1,8.1,,68.5,-330,-77,7,1016.93,65.9,0
"2018-06-17 09:22:07+00",7.4,8.4,,68.6,-319,-121,12,1017.02,65.8,0
"2018-06-17 09:27:07+00",7.3,8.3,,68.6,-327,-135,16,1016.9,65.6,0
"2018-06-17 09:32:07+00",7.0,7.0,,68.7,-307,-123,14,1016.93,65.5,0
"2018-06-17 09:37:07+00",7.1,7.1,,68.6,-308,-116,15,1017.01,65.4,0
"2018-06-17 09:42:07+00",7.7,8.7,,68.4,-310,-75,8,1017.16,65.4,0
"2018-06-17 09:47:07+00",7.4,8.4,,68.4,-316,-43,5,1017.23,65.4,0
"2018-06-17 09:52:07+00",6.6,6.6,,68.2,-276,-47,7,1017.44,65.5,0
"2018-06-17 09:57:07+00",7.5,7.5,,68.2,-317,-48,11,1017.34,65.6,0
"2018-06-17 10:02:07+00",6.7,6.7,,68.2,-269,-70,10,1017.27,65.7,0
"2018-06-17 10:07:07+00",5.6,6.6,,68.2,-228,-77,9,1017.35,65.8,0.3
"2018-06-17 10:12:07+00",5.8,6.8,,68.1,-230,-63,8,1017.33,65.8,5.3
"2018-06-17 10:17:07+00",6.2,6.2,,68.1,-248,-74,7,1017.3,66,10.1
"2018-06-17 10:22:07+00",5.6,6.6,,68.3,-227,-120,6,1017.24,66.2,18.7
"2018-06-17 10:27:07+00",5.5,6.5,,68.5,-235,-107,7,1017.37,66.6,26.5
"2018-06-17 10:32:07+00",6.0,7.0,,68.6,-264,-126,12,1017.35,67.3,35
"2018-06-17 10:37:07+00",7.2,8.2,,68.5,-299,-57,7,1017.55,68,41.9
"2018-06-17 10:42:07+00",4.5,5.5,,68.3,-183,-28,11,1017.5,68.6,50
"2018-06-17 10:47:07+00",4.5,5.5,,68.3,-185,-43,7,1017.51,69.2,58.9
"2018-06-17 10:52:07+00",4.3,5.3,,68.5,-181,-56,4,1017.62,69.9,67.2
"2018-06-17 10:57:07+00",4.5,4.5,,68.7,-193,-7,12,1017.7,70.6,76.2
"2018-06-17 11:02:07+00",4.2,5.2,,68.9,-174,33,18,1017.71,71.4,78.2
"2018-06-17 11:07:07+00",5.3,6.3,,69.1,-233,20,7,1017.52,71.9,94.6
"2018-06-17 11:12:07+00",5.6,6.6,,69.3,-234,15,28,1017.71,72.2,104.2
"2018-06-17 11:17:07+00",6.2,7.2,,69.4,-267,24,2,1017.66,72.4,112.8
"2018-06-17 11:22:07+00",5.4,6.4,,69.6,-228,11,10,1017.76,72.6,123.7
"2018-06-17 11:27:07+00",4.7,4.7,,69.8,-200,49,36,1017.81,73.1,131.2
"2018-06-17 11:32:07+00",4.5,5.5,,69.9,-188,49,11,1017.86,73.6,141.5
"2018-06-17 11:37:07+00",5.6,6.6,,70,-243,43,16,1018.01,73.8,150.9
"2018-06-17 11:42:07+00",5.5,6.5,,69.9,-234,53,18,1018.12,73.8,161.9
"2018-06-17 11:47:07+00",4.6,5.6,,69.9,-191,35,37,1018.01,74,169.1
"2018-06-17 11:52:07+00",4.9,5.9,,70.2,-209,3,6,1018,74.5,179.5
"2018-06-17 11:57:07+00",4.5,5.5,,70.4,-190,-9,20,1018.11,75,188.5
"2018-06-17 12:02:07+00",5.3,6.3,,70.7,-226,-15,16,1018.19,75.7,197.1
"2018-06-17 12:07:07+00",5.0,6.0,,70.8,-201,-28,27,1018.14,76.1,204.5
"2018-06-17 12:12:07+00",4.9,5.9,,71.1,-209,18,23,1018.19,76.8,211.8
"2018-06-17 12:17:07+00",5.9,6.9,,71.3,-247,13,34,1018.17,76.8,213.3
"2018-06-17 12:22:07+00",6.0,7.0,,71.5,-248,63,53,1018.32,76.8,209.9
"2018-06-17 12:27:07+00",6.5,7.5,,71.4,-285,46,25,1018.38,76.6,219.2
"2018-06-17 12:32:07+00",6.2,7.2,,71.5,-273,9,9,1018.41,76.3,230.2
"2018-06-17 12:37:07+00",5.7,6.7,,71.7,-243,49,12,1018.62,76.4,238.2
"2018-06-17 12:42:07+00",5.8,6.8,,71.9,-250,42,9,1018.58,76.3,238.6
"2018-06-17 12:47:07+00",5.5,6.5,,72.2,-229,78,3,1018.61,76.4,257
"2018-06-17 12:52:07+00",5.2,6.2,,72.6,-217,68,14,1018.7,76.7,258.8
"2018-06-17 12:57:07+00",5.1,6.1,,72.9,-187,112,11,1018.7,77,270.4
"2018-06-17 13:02:07+00",5.3,6.3,,73,-185,115,1,1018.74,76.8,279.3
"2018-06-17 13:07:07+00",6.0,7.0,,73.3,-209,144,-9,1018.7,76.9,285.2
"2018-06-17 13:12:07+00",4.6,5.6,,73.6,-190,39,3,1018.66,77.5,293.3
"2018-06-17 13:17:07+00",4.1,5.1,,74,-172,30,11,1018.6,78.1,309.3
"2018-06-17 13:22:07+00",4.8,5.8,,74.4,-195,57,12,1018.54,79,313.6
"2018-06-17 13:27:07+00",4.2,5.2,,74.7,-174,42,12,1018.58,79.7,317.6
"2018-06-17 13:32:07+00",5.1,6.1,,75.2,-215,52,29,1018.65,80.6,333.7
"2018-06-17 13:37:07+00",3.8,3.8,,75.6,-155,31,1,1018.67,81.2,332.8
"2018-06-17 13:42:07+00",3.2,4.2,,76,-131,24,9,1018.67,81.9,347.9
"2018-06-17 13:47:07+00",3.0,4.0,,76.4,-130,25,19,1018.67,82.4,353.2
"2018-06-17 13:52:07+00",1.3,2.3,,76.9,-45,-25,-5,1018.56,83,370.6
"2018-06-17 13:57:07+00",1.1,1.1,,77.5,-40,-2,-9,1018.54,83.5,386.3
"2018-06-17 14:02:07+00",2.0,3.0,,78,-78,-8,4,1018.62,84,395.6
"2018-06-17 14:07:07+00",1.7,2.7,,78.3,-54,-15,5,1018.67,84.9,391.2
"2018-06-17 14:12:07+00",1.0,1.0,,78.8,-8,-22,22,1018.73,85.5,402.8
"2018-06-17 14:17:07+00",2.4,3.4,,79.5,-84,-60,3,1018.77,85.3,405.9
"2018-06-17 14:22:07+00",3.0,4.0,,79,-102,-77,9,1018.72,85,418.7
"2018-06-17 14:27:07+00",5.4,6.4,,78.6,-47,-220,-30,1018.76,83.9,412.9
"2018-06-17 14:32:07+00",3.6,5.6,,78.3,-51,-126,8,1018.92,81.6,415.7
"2018-06-17 14:37:07+00",3.3,4.3,,78.5,-15,-120,12,1018.99,81.3,433.9
"2018-06-17 14:42:07+00",4.4,5.4,,78.4,-18,-169,50,1019.1,80.6,439.4
"2018-06-17 14:47:07+00",5.9,8.9,,77.8,-9,-229,25,1019.19,79.9,442.4
"2018-06-17 14:52:07+00",4.5,5.5,,77.9,-83,-172,-3,1019.18,79.6,442.1
"2018-06-17 14:57:07+00",4.1,6.1,,78.3,-31,-167,0,1019.02,80.1,456.6
"2018-06-17 15:02:07+00",7.4,8.4,,78,60,-299,8,1019.03,80,463.2
"2018-06-17 15:07:07+00",7.3,8.3,,77.4,69,-304,-24,1018.9,79.4,449.3
"2018-06-17 15:12:07+00",6.5,7.5,,77.4,44,-264,7,1019,79.4,456.6
"2018-06-17 15:17:07+00",7.0,8.0,,76.8,55,-288,-14,1019.07,78.8,459.2
"2018-06-17 15:22:07+00",7.1,8.1,,76.9,55,-290,-6,1019,78.7,484.2
"2018-06-17 15:27:07+00",6.9,7.9,,77.7,56,-272,6,1019.09,79.6,490.1
"2018-06-17 15:32:07+00",8.5,9.5,,76.9,103,-347,-6,1019.17,79.4,493.2
"2018-06-17 15:37:07+00",7.9,8.9,,76.9,81,-326,-23,1019.15,79.3,489.9
"2018-06-17 15:42:07+00",8.0,9.0,,76.5,95,-324,20,1019.28,78.8,485.4
"2018-06-17 15:47:07+00",9.1,10.1,,75.5,133,-359,-17,1019.23,78.1,471.5
"2018-06-17 15:52:07+00",8.8,9.8,,75.8,105,-365,-9,1019.23,78.2,469.9
"2018-06-17 15:57:07+00",7.8,8.8,,76.4,94,-317,5,1019.22,78.7,481.6
"2018-06-17 16:02:07+00",9.0,11.0,,76,97,-366,4,1019.15,78.3,501.5
"2018-06-17 16:07:07+00",10.5,11.5,,75.7,120,-440,-11,1019.13,78.1,507.6
"2018-06-17 16:12:07+00",9.4,11.4,,75.4,106,-383,-1,1019.14,77.9,503.9
"2018-06-17 16:17:07+00",9.7,11.7,,74.9,101,-397,-11,1019.07,77.5,510.1
"2018-06-17 16:22:07+00",10.3,12.3,,74.3,99,-418,-9,1019.05,76.9,508.4
"2018-06-17 16:27:07+00",11.2,13.2,,74.3,92,-464,-20,1018.82,76.5,512
"2018-06-17 16:32:07+00",11.3,13.3,,74.4,80,-482,-25,1018.78,76.6,513.1
"2018-06-17 16:37:07+00",10.3,12.3,,74.4,66,-440,-16,1018.84,76.7,518.6
"2018-06-17 16:42:07+00",9.0,12.0,,74.7,66,-394,-1,1018.84,76.9,523.8
"2018-06-17 16:47:07+00",11.2,13.2,,74.5,76,-464,-7,1018.61,76.7,521.9
"2018-06-17 16:52:07+00",12.7,15.7,,74.5,90,-540,-17,1018.65,76.8,486.6
"2018-06-17 16:57:07+00",13.9,15.9,,74.3,79,-596,-42,1018.46,76.5,521.5
"2018-06-17 17:02:07+00",11.0,15.0,,74.3,81,-468,-16,1018.5,76.6,427.2
"2018-06-17 17:07:07+00",11.6,14.6,,74.2,60,-500,-11,1018.45,76.2,528.6
"2018-06-17 17:12:07+00",11.6,13.6,,74.2,60,-492,-10,1018.43,76.2,530.6
"2018-06-17 17:17:07+00",12.9,15.9,,74.2,67,-542,-39,1018.44,76.4,528.5
"2018-06-17 17:22:07+00",13.1,16.1,,74.4,93,-563,-28,1018.33,76.5,531.7
"2018-06-17 17:27:07+00",12.2,15.2,,74.4,63,-511,5,1018.37,76.7,530.5
"2018-06-17 17:32:07+00",13.0,15.0,,74.4,100,-543,-34,1018.31,76.6,533.6
"2018-06-17 17:37:07+00",11.4,13.4,,74.7,54,-493,-16,1018.3,76.8,533.4
"2018-06-17 17:42:07+00",13.1,17.1,,74.8,58,-560,-26,1018.18,76.9,533
"2018-06-17 17:47:07+00",12.5,15.5,,74.6,54,-522,-34,1018.11,76.7,533.5
"2018-06-17 17:52:07+00",11.5,14.5,,74.8,68,-491,-5,1018.12,76.7,531.8
"2018-06-17 17:57:07+00",14.4,18.4,,74.4,51,-611,-30,1018.05,76.3,530.2
"2018-06-17 18:02:07+00",14.8,17.8,,74.8,68,-639,-20,1018.01,76.5,527.7
"2018-06-17 18:07:07+00",14.4,17.4,,74.4,48,-610,-18,1018.09,76.2,532.5
"2018-06-17 18:12:07+00",12.2,15.2,,74.7,80,-516,11,1018.11,76.3,532.9
"2018-06-17 18:17:07+00",11.4,16.4,,74.7,52,-472,2,1018.03,76.6,531.9
"2018-06-17 18:22:07+00",12.8,15.8,,74.5,105,-532,-7,1018.07,76.4,530.2
"2018-06-17 18:27:07+00",12.6,18.6,,74.6,122,-519,-14,1018.11,76.7,525.6
"2018-06-17 18:32:07+00",11.1,13.1,,74.7,119,-454,21,1018.18,76.7,521.7
"2018-06-17 18:37:07+00",12.1,14.1,,74.8,130,-505,-13,1018.26,77.2,518.6
"2018-06-17 18:42:07+00",13.2,15.2,,74.7,118,-556,-28,1018.26,76.8,513.8
"2018-06-17 18:47:07+00",13.2,17.2,,74.5,99,-563,-1,1018.22,76.9,514.3
"2018-06-17 18:52:07+00",13.4,16.4,,74,129,-559,-26,1018.31,76.1,513.8
"2018-06-17 18:57:07+00",13.7,16.7,,74.2,154,-574,-17,1018.17,76.4,500.6
"2018-06-17 19:02:07+00",14.0,17.0,,74.2,186,-567,-7,1018.26,76.3,505.6
"2018-06-17 19:07:07+00",10.8,13.8,,74.7,87,-442,43,1018.2,76.8,503
"2018-06-17 19:12:07+00",15.5,17.5,,74.2,170,-642,-24,1018.31,76.5,495.9
"2018-06-17 19:17:07+00",15.8,18.8,,74.3,101,-671,-47,1018.17,76.3,487.8
"2018-06-17 19:22:07+00",14.9,17.9,,74,96,-637,-25,1018.17,76.2,479
"2018-06-17 19:27:07+00",15.4,19.4,,74.4,75,-653,-24,1018.1,76.2,473.1
"2018-06-17 19:32:07+00",13.1,17.1,,74.3,66,-532,4,1018.26,76.1,460.4
"2018-06-17 19:37:07+00",14.2,17.2,,74.3,60,-611,-20,1018.27,75.8,450.4
"2018-06-17 19:42:07+00",11.4,14.4,,74.7,64,-476,9,1018.24,76.5,434.5
"2018-06-17 19:47:07+00",11.3,13.3,,74.6,68,-486,4,1018.3,76.3,430.8
"2018-06-17 19:52:07+00",13.1,16.1,,74.5,50,-558,-20,1018.23,76.4,423.7
"2018-06-17 19:57:07+00",14.9,17.9,,74.2,84,-634,-32,1018.23,76,417.6
"2018-06-17 20:02:07+00",15.9,17.9,,74.3,52,-681,-25,1018.1,76,409.7
"2018-06-17 20:07:07+00",12.0,16.0,,74.5,34,-479,-8,1018.12,76.2,396.2
"2018-06-17 20:12:07+00",10.9,14.9,,74.4,-1,-468,3,1018.12,75.9,387.1
"2018-06-17 20:17:07+00",13.0,16.0,,74.8,40,-552,-13,1018.08,76.1,383.5
"2018-06-17 20:22:07+00",15.2,19.2,,75.2,35,-654,-31,1018.13,76.6,370.2
"2018-06-17 20:27:07+00",14.0,18.0,,75.2,29,-573,-15,1018.08,76.5,262.4
"2018-06-17 20:32:07+00",14.3,18.3,,75.4,36,-598,-8,1018.16,76.6,35.3
"2018-06-17 20:37:07+00",15.1,18.1,,75.7,10,-634,-37,1018.17,76.7,29
"2018-06-17 20:42:07+00",12.2,19.2,,76,-5,-518,10,1018.28,77,29.3
"2018-06-17 20:47:07+00",14.5,19.5,,76.2,-61,-606,-20,1018.11,77.3,32.3
"2018-06-17 20:52:07+00",12.5,17.5,,76.4,-65,-526,-18,1018.28,77.4,34.1
"2018-06-17 20:57:07+00",12.8,16.8,,76.3,-41,-536,-5,1018.29,77.3,44
"2018-06-17 21:02:07+00",13.1,18.1,,76.3,-16,-551,10,1018.17,77.4,258
"2018-06-17 21:07:07+00",11.8,13.8,,76.3,-41,-495,-10,1018.32,77.3,247
"2018-06-17 21:12:07+00",14.9,16.9,,76.2,20,-620,-39,1018.11,77.2,242.9
"2018-06-17 21:17:07+00",10.4,14.4,,76.2,-31,-441,-9,1018.28,77.2,181.3
"2018-06-17 21:22:07+00",11.1,16.1,,76.1,-48,-461,16,1018.22,77.2,34.2
"2018-06-17 21:27:07+00",11.5,13.5,,76.1,-73,-479,-7,1018.29,77.1,224.6
"2018-06-17 21:32:07+00",13.5,17.5,,75.7,-32,-567,-27,1018.18,76.8,185.9
"2018-06-17 21:37:07+00",10.6,17.6,,75.8,-63,-436,18,1018.25,76.7,153.4
"2018-06-17 21:42:07+00",13.5,17.5,,75.6,-32,-569,-35,1018.29,76.5,124.4
"2018-06-17 21:47:07+00",13.7,20.7,,75.5,-147,-573,7,1018.42,76.4,147
"2018-06-17 21:52:07+00",13.5,18.5,,75.4,-136,-561,3,1018.49,76.1,109.6
"2018-06-17 21:57:07+00",12.2,15.2,,75.5,-141,-503,-12,1018.44,76.2,121.4
"2018-06-17 22:02:07+00",14.0,18.0,,75.6,-153,-576,-4,1018.43,76.4,132.6
"2018-06-17 22:07:07+00",11.9,15.9,,75.6,-102,-495,0,1018.44,76.4,128.9
"2018-06-17 22:12:07+00",9.4,12.4,,75.6,-104,-390,11,1018.5,76.3,87.3
"2018-06-17 22:17:07+00",11.2,14.2,,75.5,-124,-458,-14,1018.51,76.1,68.4
"2018-06-17 22:22:07+00",9.1,14.1,,75.5,-103,-370,23,1018.64,76.1,75.1
"2018-06-17 22:27:07+00",9.9,12.9,,75.3,-74,-414,-4,1018.66,75.9,64.9
"2018-06-17 22:32:07+00",10.2,13.2,,75.2,-116,-428,14,1018.62,75.7,82
"2018-06-17 22:37:07+00",9.0,12.0,,74.9,-31,-381,0,1018.48,75.5,70.5
"2018-06-17 22:42:07+00",10.3,16.3,,74.6,-64,-418,-15,1018.43,75.1,69.3
"2018-06-17 22:47:07+00",12.1,16.1,,74.2,-54,-517,-36,1018.46,74.7,51.6
"2018-06-17 22:52:07+00",10.5,12.5,,74,-36,-434,-16,1018.56,74.5,50.7
"2018-06-17 22:57:07+00",10.5,13.5,,74,-32,-431,-22,1018.54,74.3,36.9
"2018-06-17 23:02:07+00",9.3,12.3,,74,-68,-390,-1,1018.55,74.3,42.5
"2018-06-17 23:07:07+00",9.6,13.6,,73.9,-36,-394,-3,1018.49,74.2,44.9
"2018-06-17 23:12:07+00",8.9,10.9,,74,-62,-352,5,1018.53,74.3,44.2
"2018-06-17 23:17:07+00",9.1,12.1,,73.9,-55,-390,-17,1018.49,74.1,34.3
"2018-06-17 23:22:07+00",10.4,13.4,,73.7,-106,-416,10,1018.51,74,24.5
"2018-06-17 23:27:07+00",8.7,12.7,,73.7,-52,-353,-1,1018.5,74,21.8
"2018-06-17 23:32:07+00",9.7,13.7,,73.5,-37,-410,-12,1018.54,73.7,24.1
"2018-06-17 23:37:07+00",9.8,13.8,,73.3,-23,-414,-15,1018.65,73.5,21.7
"2018-06-17 23:42:07+00",10.6,13.6,,72.9,24,-442,-10,1018.52,73.2,19.2
"2018-06-17 23:47:07+00",11.0,13.0,,72.7,20,-463,-20,1018.54,73,10.9
"2018-06-17 23:52:07+00",9.8,11.8,,72.4,47,-422,-3,1018.55,72.7,6.4
"2018-06-17 23:57:07+00",10.1,12.1,,72.1,41,-428,-14,1018.5,72.4,0.5
